Regional Weather Roundup
Issued by NWS State College, PA

Home | Current Version | Previous Version | Text Only | Print | Product List | Glossary On
Versions: 1 2 3 4 5 6 7 8 9 10 11 12 13 14 15 16 17 18 19 20 21 22 23 24 25 26 27 28 29 30 31 32 33 34 35 36 37 38 39 40 41 42 43 44 45 46 47 48 49 50
780
ASUS41 KCTP 212110
RWRCTP

REGIONAL WEATHER ROUNDUP
NATIONAL WEATHER SERVICE STATE COLLEGE PA
500 PM EDT SAT OCT 21 2017

Note: "fair" indicates few or no clouds below 12,000 feet with no
significant weather and/or obstructions to visibility.

* = STATION THAT DOES NOT REPORT PRECIPITATION /E.G. RAIN...SNOW...ETC/
    THUNDER OR FOG.

PAZ002>004-007>009-013>016-020>023-029>032-212200-
WESTERN PENNSYLVANIA

CITY           SKY/WX    TMP DP  RH WIND       PRES   REMARKS
ERIE           CLOUDY    73  50  44 S7        30.22F
MEADVILLE      PTSUNNY   71  48  43 VRB5      30.26S
FRANKLIN*      PTSUNNY   69  50  50 SE5       30.28F
NEW CASTLE     FAIR      73  52  47 SE6       30.26S
BEAVER COUNTY  SUNNY     72  52  49 SE5       30.26
BUTLER*        MOSUNNY   71  52  50 SE5       30.27S
PITTSBURGH INT PTSUNNY   74  52  46 SE5       30.26S
PITTSBURGH     CLOUDY    74  49  41 SE7       30.26S
INDIANA*       SUNNY     73  46  38 CALM      30.30S
LATROBE        SUNNY     75  48  38 CALM      30.27S
WASHINGTON CO* CLOUDY    74  51  44 S6        30.28S
$$

PAZ004>006-010>012-017>019-024>028-033>037-041-042-045-046-049>053-212200-
CENTRAL PENNSYLVANIA

CITY           SKY/WX    TMP DP  RH WIND       PRES   REMARKS
BRADFORD       CLOUDY    70  39  32 S6        30.31R
DUBOIS         CLOUDY    69  42  37 E6        30.29S
CLEARFIELD     CLOUDY    69  43  38 VRB5      30.31S
JOHNSTOWN      CLOUDY    68  41  37 SE10      30.32S
ALTOONA        CLOUDY    71  40  32 S8        30.33R
STATE COLLEGE  SUNNY     70  41  35 CALM      30.32S
WILLIAMSPORT   CLOUDY    69  51  52 SE3       30.30S
SELINSGROVE    CLOUDY    69  55  60 SE3       30.33R
FT INDIANTOWN  CLOUDY    70  55  57 CALM      30.33R
CAPITAL CITY   MOSUNNY   74  44  34 VRB5      30.32R
HARRISBURG     CLOUDY    68  55  63 W3        30.31R
YORK           CLOUDY    73  42  32 S5        30.32R
$$

PAZ038>040-043-044-047-048-054-055-060>062-067>071-212200-
EASTERN PENNSYLVANIA

CITY           SKY/WX    TMP DP  RH WIND       PRES   REMARKS
SCRANTON       CLOUDY    73  39  29 SW3       30.32S
MOUNT POCONO   CLOUDY    69  33  26 W7        30.35R
ALLENTOWN      CLOUDY    74  51  44 W3        30.32R
QUAKERTOWN*    CLOUDY    73  45  35 SW3       30.33S
READING        CLOUDY    73  45  36 W5        30.31R
LANCASTER      CLOUDY    74  44  34 CALM      30.32R
COATESVILLE    CLOUDY    72  41  33 CALM      30.34S
POTTSTOWN      CLOUDY    73  44  35 CALM      30.33S
BLUE BELL      CLOUDY    72  45  37 CALM      30.33S
DOYLESTOWN     CLOUDY    71  46  40 CALM      30.31S
WILLOW GROVE   NOT AVBL
NORTH PHILA    SUNNY     77  42  28 CALM      30.33S
PHILADELPHIA   PTSUNNY   77  41  27 CALM      30.31S
$$




USA.gov is the U.S. government's official web portal to all federal, state and local government web resources and services.